BEESAT-2 (39136 NORAD) Tracking and Keplerian Element Data

This shows tracking and keplerian element data for the satellite.

Feedback or suggestion? Click here.




ElementValue
Catalog39136
NameBEESAT-2
Epoch Orbit52968
Epoch Day324.38747749
Epoch Year2022
RAAN317.8241
Inclination64.873
Eccentricity0.002496
Argument of Perigee292.461
Mean Anonmoly67.3878
Mean Motion15.26506213
Decay Rate0.00012472
L11 39136U 13015G 22324.38747749 .00012472 00000+0 47848-3 0 9993
L22 39136 64.8730 317.8241 0024960 292.4610 67.3878 15.26506213529683



Live tracking and technical data element details for BEESAT-2 (NORAD 39136). BEESAT-2 can be tracked NOW for your location showing map with azimuth and elevation plus other details from your city location.







IsCatalogInMostPopularTable: catalog: 39136, numindb: 417
Update: records affected: 1



GetName: 39136 BEESAT-2

Hit Count: updated at: Mon, 28 Nov 2022 05:42:20 GMT